Theta_e
302 301 302 303 300 298 298 300 300 299 299 297 297 294 293 292 291 290 289 288 287 288 288 288 287 287 286 286 285 285 285 285 284 285 287 288 289 288 288 287 289 290 290
301 300 300 299 296 294 298 300 300 297 297 296 296 295 292 291 290 289 288 288 288 288 287 287 287 287 286 284 283 283 283 283 284 284 285 288 288 288 288 288 287 288 289
299 298 297 296 295 293 293 293 293 294 295 295 295 293 291 290 289 289 288 288 288 288 287 287 286 284 283 283 282 282 281 283 284 285 285 286 286 287 287 287 286 287 286
298 297 296 294 293 293 293 293 292 293 295 295 293 292 290 289 289 289 288 288 288 287 286 284 283 283 283 282 281 280 281 282 283 284 284 285 286 286 286 286 286 285 285
296 295 294 294 294 294 294 293 291 294 294 294 293 289 289 289 289 288 288 287 287 285 284 283 282 282 281 281 280 280 280 281 281 283 283 284 285 286 286 285 285 284 284
295 294 294 294 294 294 293 291 292 292 292 293 291 289 289 289 288 288 287 285 284 283 282 282 281 280 280 279 279 280 280 281 281 281 282 282 284 285 285 285 285 284 284
294 294 294 294 293 293 291 291 291 292 293 289 290 289 289 288 287 286 285 283 282 281 280 279 279 279 279 279 279 279 280 281 281 281 281 281 282 283 284 283 284 283 283
294 294 293 293 293 292 291 291 291 291 290 290 289 288 288 287 286 284 283 281 280 280 279 279 278 279 279 279 279 280 280 281 281 281 281 282 282 282 282 282 283 283 283
294 293 293 292 291 290 291 291 290 290 289 289 289 288 287 286 284 282 281 280 280 280 279 279 278 278 279 280 280 280 281 280 280 280 280 281 282 283 283 283 283 283 283
293 293 292 291 290 289 290 291 290 289 289 289 288 287 286 284 282 281 280 280 279 279 279 279 278 278 279 279 279 280 280 281 280 280 280 280 280 281 282 283 283 283 283
293 292 291 290 290 289 289 289 289 289 288 287 287 286 284 283 282 280 280 280 278 278 278 278 278 278 278 279 279 279 280 280 281 280 281 281 281 281 281 281 281 282 282
292 291 291 290 289 289 289 289 288 288 287 286 286 284 283 282 281 280 280 279 277 277 277 277 277 277 278 278 278 278 279 280 280 280 281 281 282 282 282 283 283 283 283
291 291 291 290 288 288 288 288 287 287 286 286 285 283 283 282 281 280 279 279 278 277 277 277 277 277 276 277 278 278 278 279 279 280 280 281 282 283 283 284 284 285 285
290 291 291 290 288 287 287 287 287 287 286 285 284 283 282 282 281 280 279 278 278 277 276 276 277 276 276 276 277 278 278 278 279 280 280 281 282 283 284 284 285 286 286
289 289 290 289 288 286 286 286 286 286 285 284 283 283 282 281 281 280 278 278 277 276 275 275 276 276 276 276 276 277 277 278 279 279 280 281 282 282 283 284 285 286 286
289 289 289 289 288 287 286 286 285 285 284 283 283 282 282 281 281 280 279 277 277 277 275 275 275 275 274 275 275 276 276 277 278 279 280 280 281 281 282 283 284 285 285
288 288 289 288 287 287 286 286 283 283 283 283 282 282 282 281 280 280 279 278 277 277 275 274 274 274 274 274 274 275 274 275 277 278 279 280 280 281 281 281 282 283 283
288 288 288 287 287 287 286 285 284 283 283 282 282 282 281 281 280 280 279 278 277 277 277 275 274 274 274 274 273 273 273 274 276 277 278 279 279 280 280 280 281 281 281
288 288 287 286 286 286 285 284 284 283 282 282 282 282 281 281 280 280 279 278 278 276 277 277 275 274 274 273 273 273 273 273 274 277 277 278 278 279 279 279 279 279 280
288 288 287 286 286 285 284 284 284 283 282 282 281 282 281 281 281 280 280 279 278 277 276 276 277 276 275 274 274 274 274 274 274 274 275 276 277 278 278 278 278 278 278
288 288 288 286 285 284 284 283 283 283 282 282 282 282 282 281 281 281 280 279 279 278 277 276 275 275 275 275 274 274 274 274 274 273 274 274 275 275 277 277 277 277 277
288 288 288 286 285 284 283 282 283 283 282 283 281 282 281 281 281 281 280 280 279 279 278 277 275 275 275 275 274 274 274 274 274 274 274 273 274 274 274 275 275 276 277
287 287 288 288 285 284 283 283 282 283 282 282 282 282 281 281 281 281 280 280 280 279 278 278 277 276 276 276 276 276 275 274 274 274 274 273 273 273 273 274 274 275 275
286 287 288 288 286 286 285 284 283 283 283 282 283 283 282 282 281 281 281 280 280 280 279 279 278 278 277 276 276 276 276 275 274 274 274 273 273 273 273 273 273 273 274
287 287 287 287 287 286 286 285 284 284 283 283 282 282 283 282 281 281 281 280 280 280 279 279 278 278 278 277 277 276 276 276 275 275 275 274 273 273 273 273 273 273 273
286 287 287 287 286 286 286 286 286 285 284 282 282 282 282 281 281 281 281 280 280 280 280 279 279 278 278 277 277 276 276 276 275 275 275 274 274 273 273 273 273 273 273
Wind_Speed
13 14 16 15 17 20 23 22 23 21 28 25 26 19 19 19 19 18 21 23 25 25 26 24 26 29 32 35 33 31 31 28 28 32 26 23 21 21 22 20 21 18 14
15 19 20 18 24 27 21 21 25 29 28 28 32 22 18 19 19 20 22 24 25 26 26 28 32 35 37 33 30 30 29 28 28 31 28 21 22 22 23 23 19 21 23
18 17 19 26 31 26 23 25 27 27 28 31 30 21 15 20 19 23 24 23 23 27 28 33 35 33 31 30 30 30 28 24 24 25 28 29 25 22 22 23 23 24 22
18 22 28 29 26 26 26 30 32 24 27 24 21 15 13 15 22 20 20 25 27 28 33 32 29 28 30 29 29 29 25 25 21 23 24 24 24 22 22 22 21 22 24
24 27 26 27 27 28 31 35 25 21 23 22 15 10 14 17 17 19 24 27 30 32 31 30 29 28 25 26 25 26 25 24 24 22 19 19 21 21 21 20 20 19 19
28 25 22 23 27 29 34 30 21 18 20 19 13 11 15 17 19 22 27 29 30 31 31 31 29 28 26 27 28 22 22 23 24 26 26 21 18 16 18 19 19 18 20
21 18 20 24 28 33 32 24 21 20 12 7 12 14 15 18 20 25 28 28 29 30 29 28 28 28 26 24 21 18 18 20 20 22 25 25 24 21 18 19 20 21 23
16 19 24 29 33 32 26 19 15 8 9 11 13 11 16 20 25 27 28 28 29 30 27 23 23 22 21 20 21 24 23 19 15 17 16 18 22 22 22 22 21 21 21
21 26 29 32 31 25 18 15 8 8 11 7 12 16 18 23 24 24 25 29 30 25 21 21 19 18 16 21 20 19 20 21 21 22 21 20 20 14 17 16 19 16 18
27 27 29 27 23 22 15 12 10 10 8 12 12 17 21 21 21 23 26 27 25 22 21 19 15 17 20 22 20 19 20 19 18 15 16 17 19 23 23 24 23 25 24
26 27 25 22 23 18 14 13 12 10 10 11 16 18 19 19 20 22 25 23 21 22 21 21 19 19 19 17 17 15 17 18 16 16 14 11 10 11 15 20 24 26 27
26 24 23 22 21 14 11 9 9 10 11 13 15 16 15 17 18 22 23 20 19 19 21 21 20 19 17 16 16 14 14 13 10 10 12 11 10 9 10 12 14 15 18
26 21 21 21 16 13 13 13 12 10 11 14 15 14 14 16 17 21 21 22 22 20 22 18 17 18 17 14 11 11 12 11 11 10 11 10 10 9 7 6 10 13 14
20 17 20 19 16 15 14 12 11 11 13 15 14 13 13 15 18 20 22 22 23 21 19 18 17 16 14 11 9 11 13 10 11 10 10 10 9 6 4 5 5 3 3
18 18 21 17 14 13 10 10 13 15 16 15 13 13 14 15 18 19 17 21 21 21 19 16 16 16 16 13 10 12 14 12 10 11 10 9 8 8 8 7 6 3 4
21 20 20 16 12 12 12 13 14 17 15 12 13 12 12 14 17 18 18 19 19 19 18 16 16 16 17 16 16 14 14 13 11 11 10 8 8 9 9 7 6 5 5
20 20 15 16 13 13 15 16 18 7 9 11 13 12 12 14 15 16 17 18 17 17 17 16 15 16 17 16 16 15 16 13 9 9 10 10 7 7 7 8 7 4 4
20 16 16 17 16 17 15 15 14 14 12 12 11 12 11 12 13 14 15 17 15 15 16 16 16 15 16 15 16 16 16 14 9 7 8 9 8 7 7 7 7 7 6
19 17 16 16 16 14 14 14 14 15 15 12 13 12 10 12 12 13 14 16 15 15 15 14 14 15 15 14 14 14 14 15 13 9 9 8 7 7 7 6 6 7 8
19 21 18 17 14 14 16 17 16 15 15 13 14 11 11 12 10 11 13 14 14 14 13 13 13 13 14 14 14 13 13 13 12 11 10 9 8 7 7 8 9 10 10
21 20 21 17 16 17 19 19 16 16 15 14 12 12 13 13 11 12 12 12 13 12 12 13 12 12 13 13 13 13 13 13 13 12 11 11 10 9 8 9 9 10 12
26 24 22 19 17 18 17 12 15 16 17 16 14 12 13 13 13 12 12 11 12 11 11 11 12 13 12 12 13 13 13 13 12 11 11 11 11 10 9 8 9 9 11
27 26 20 19 15 14 14 13 15 16 16 17 16 15 14 16 15 14 12 11 12 11 11 11 11 13 13 12 13 13 13 13 13 13 12 11 11 11 10 10 11 10 11
23 19 17 18 17 16 15 14 14 17 18 18 18 18 18 16 16 16 14 13 12 11 10 10 11 12 12 13 13 13 12 13 12 12 12 12 11 11 10 10 10 10 9
22 20 18 20 21 20 20 20 20 18 19 21 21 20 20 21 19 18 16 15 13 12 11 10 11 11 12 13 13 13 12 11 11 11 11 11 12 11 10 10 9 9 9
22 21 20 21 23 24 25 26 24 22 21 21 22 22 23 20 18 17 16 14 12 12 12 11 12 12 12 13 13 12 11 11 11 11 11 11 11 10 10 10 9 9 9
Wind_Direction
335 328 321 308 308 322 328 319 309 298 306 299 298 305 294 291 308 315 319 322 325 318 309 305 304 303 305 307 303 295 291 290 286 285 283 281 280 287 292 288 274 278 287
318 318 317 313 331 338 332 317 314 317 311 296 301 284 286 296 304 310 316 321 321 309 299 303 305 307 307 306 306 302 294 285 280 280 279 273 272 279 281 284 286 277 272
319 321 327 331 335 340 338 327 328 315 305 300 296 297 282 299 304 316 313 312 308 302 300 306 307 307 305 308 308 306 302 296 287 278 274 270 274 277 278 280 282 281 281
319 325 328 333 337 333 331 330 328 310 304 294 298 284 286 298 314 301 302 306 302 300 305 307 307 304 305 307 307 306 297 289 292 286 280 279 273 268 272 278 281 281 279
324 328 332 334 336 332 328 329 322 304 297 293 277 274 288 313 294 300 303 305 305 306 308 307 306 305 304 299 302 299 295 296 284 297 285 285 277 269 265 275 278 285 285
329 330 328 329 328 326 329 333 320 312 304 295 274 293 315 297 302 308 310 309 310 311 311 309 309 307 307 303 301 294 287 287 287 281 281 280 286 267 263 268 273 273 287
319 314 321 327 327 328 332 327 316 311 286 288 297 297 292 302 314 315 311 315 316 315 313 312 310 309 307 308 306 301 297 291 285 282 275 273 272 269 268 269 268 270 276
306 320 328 325 325 328 328 325 319 317 303 297 290 286 308 315 316 317 321 323 322 320 320 322 323 322 322 320 311 302 297 302 294 297 289 283 272 266 262 261 264 267 267
323 326 325 324 324 326 318 320 301 310 307 285 299 305 308 313 319 325 327 327 326 329 333 335 332 330 335 329 319 324 312 292 297 295 285 274 271 260 260 261 259 258 264
324 324 324 325 323 323 308 305 316 309 294 289 294 303 314 322 329 333 336 334 334 338 340 339 337 333 329 323 323 320 334 311 303 302 299 288 273 262 255 252 253 257 262
321 325 329 324 322 313 307 306 304 294 285 291 303 314 324 329 333 339 341 344 344 337 338 339 336 336 331 327 324 326 324 324 313 309 310 306 295 277 265 258 257 257 260
321 322 325 322 321 312 310 310 306 301 289 304 317 323 329 334 338 341 344 353 345 339 338 337 332 335 333 329 333 332 323 319 326 323 321 322 319 301 275 260 252 253 251
319 308 319 322 316 300 298 300 301 288 299 314 320 324 331 339 341 341 348 353 345 342 341 337 333 336 337 339 347 343 342 342 340 334 333 330 327 321 305 273 255 257 266
317 297 312 316 315 304 298 292 281 288 305 315 317 323 334 337 341 345 353 350 345 350 345 345 340 343 345 348 352 356 356 360 5 359 350 340 337 346 343 314 255 225 288
321 299 303 302 312 312 308 289 288 297 305 309 310 323 331 338 343 354 346 347 348 348 345 340 342 355 359 1 358 353 357 2 6 4 360 3 22 24 25 28 55 26 333
313 304 298 289 297 298 305 307 302 301 300 300 307 318 327 339 345 349 346 345 348 349 353 355 359 360 1 4 2 1 357 2 10 11 13 11 20 27 21 21 42 44 70
307 307 295 289 286 287 296 299 314 280 283 301 300 312 325 336 341 344 348 348 349 351 355 3 3 2 4 5 7 6 4 2 0 7 14 18 13 15 19 21 22 28 36
308 303 289 284 281 283 281 292 313 304 296 303 304 316 322 331 336 340 346 347 354 357 352 356 2 3 5 5 5 7 8 9 2 359 4 11 20 13 19 23 15 7 351
308 305 290 285 285 279 279 295 303 294 294 292 303 310 317 327 331 336 339 343 353 358 356 352 353 357 1 2 2 360 1 5 5 353 347 353 1 10 10 8 0 352 347
311 308 293 285 280 272 283 291 293 289 291 293 296 292 298 312 322 331 335 339 345 350 351 350 349 348 352 355 355 357 358 359 2 359 352 347 339 332 338 347 348 346 342
312 304 294 278 273 278 283 283 278 283 285 297 292 289 296 293 308 318 325 329 333 336 340 342 342 341 343 344 346 348 351 352 354 354 352 348 345 338 325 325 324 329 336
295 304 284 275 271 281 287 273 268 272 275 280 292 290 287 287 292 306 315 322 327 328 333 334 337 339 339 338 337 341 343 346 347 351 350 348 347 344 339 331 334 328 339
299 301 277 275 279 284 278 284 276 267 275 273 280 291 290 287 288 292 298 305 313 316 323 328 328 330 330 333 330 333 336 338 343 350 353 350 347 347 347 343 344 346 350
313 298 273 268 268 276 280 283 290 274 270 272 272 278 281 292 284 283 285 294 301 305 308 318 324 324 323 323 323 325 327 328 332 341 348 350 347 346 346 347 344 347 349
312 299 277 268 269 270 276 280 282 294 272 271 272 275 270 285 282 275 278 283 284 291 300 308 315 321 321 317 317 318 320 322 327 331 335 339 342 342 343 345 344 343 345
308 299 287 280 276 277 278 277 278 282 282 275 267 269 272 277 286 280 270 268 270 276 288 300 308 312 317 315 311 311 313 316 321 324 328 329 330 332 333 338 340 339 337